Tracking 30258 objects as of 19-Feb-2025
HD Live streaming from Space Station
objects crossing your sky now

MOLNIYA 3-41

Track MOLNIYA 3-41 now!
MOLNIYA 3-41 is classified as:


NORAD ID: 21706
Int'l Code: 1991-065A
Perigee: 565.8 km
Apogee: 39,151.8 km
Inclination: 63.7 °
Period: 704.6 minutes
Semi major axis: 26229 km
RCS: 14.2786 m2 (large)
Launch date: September 17, 1991
Source: Commonwealth of Independent States (former USSR) (CIS)
Launch site: PLESETSK MISSILE AND SPACE COMPLEX (PKMTR)
Your satellite tracking list
Your tracking list is empty




NASA's NSSDC Master Catalog

Two Line Element Set (TLE):
1 21706U 91065A   25050.61113596  .00000655  00000-0  47702-3 0  9990
2 21706  63.6701  38.8539 7355361 250.9240  22.0603  2.04366589246850
Source of the keplerian elements: AFSPC